Wind_Speed
19 19 19 19 19 18 18 18 18 18 18 18 18 18 18 17 17 17 17 17 17 17 17 17 17 17 17 17 18 18 19 19 20 19 19 20 20 20 21 21 22 22 23 23 24 24 24 24 25 26 26 26 26 26 26 26 26 26 26 25 25 26 26 25 25 26 25 25 24 24 24 22 22 22 21 19 20 19 17 19 19 15 15 17 17 17 17 16
22 22 22 22 22 22 22 21 21 21 21 21 21 21 21 21 21 21 21 20 20 20 20 20 20 20 20 21 21 21 22 23 23 23 22 23 24 23 24 24 24 25 25 26 26 26 26 27 27 28 28 28 28 28 27 27 28 27 27 26 26 28 28 27 28 28 27 26 26 26 26 24 24 25 24 21 22 22 19 21 22 18 16 18 18 18 18 18
26 25 25 25 25 25 25 24 24 24 24 24 24 24 24 24 24 23 23 23 23 23 23 23 23 23 23 23 24 24 24 25 26 26 25 26 27 27 27 27 27 27 28 28 28 28 28 28 29 29 29 29 29 29 29 29 29 29 28 26 27 30 28 29 30 29 29 27 27 28 28 27 27 27 25 24 25 23 20 25 26 21 19 19 19 19 19 18
29 29 29 28 28 28 28 28 27 27 27 27 27 27 26 26 26 26 26 26 26 26 26 25 26 25 25 25 25 25 26 28 28 28 27 28 29 29 29 29 29 29 29 30 30 29 29 29 29 29 29 29 30 30 30 31 31 29 29 28 29 31 29 30 32 30 30 29 29 30 30 29 28 28 27 27 27 20 19 27 29 24 21 21 21 20 20 20
32 32 32 31 31 31 31 31 30 30 30 30 30 29 29 29 29 29 28 28 28 28 28 27 27 27 27 26 26 26 27 29 29 28 29 29 30 30 30 30 30 30 30 30 31 31 30 30 29 29 29 30 30 30 30 32 32 28 28 29 30 32 29 30 33 32 31 31 30 31 31 30 29 29 28 30 27 19 22 29 31 27 24 23 22 21 22 23
35 35 35 34 34 34 34 33 33 33 33 33 32 32 32 31 31 31 31 31 30 30 30 29 29 28 27 26 26 26 26 29 29 28 29 29 29 29 29 29 29 29 29 30 31 31 30 30 29 29 29 29 29 29 30 32 32 28 26 29 31 32 30 30 33 33 33 32 31 32 32 31 31 29 28 30 26 22 27 30 32 30 26 23 22 22 23 24
38 37 37 37 36 36 36 35 35 35 35 34 34 34 33 33 33 32 32 32 31 31 30 30 29 28 28 26 26 24 25 28 28 26 27 27 27 27 27 27 27 27 28 29 29 30 30 30 29 30 29 28 28 29 30 32 32 29 26 28 31 33 31 30 32 33 34 33 33 34 33 32 33 30 27 26 24 25 30 30 31 31 28 25 23 24 25 26
39 38 38 38 37 37 36 36 36 36 35 35 34 34 33 33 33 32 32 32 32 32 31 31 30 29 28 26 25 22 23 29 29 26 26 26 26 27 27 27 27 27 28 28 29 30 30 30 31 32 30 29 29 29 31 33 33 31 28 28 30 31 31 31 32 32 34 34 35 36 35 33 34 32 23 20 21 27 31 30 30 31 29 28 26 27 27 28
37 37 37 37 36 36 35 35 35 35 34 34 33 33 33 32 32 32 33 33 33 33 32 32 31 30 28 25 24 20 23 31 30 27 27 28 28 28 28 28 28 28 30 30 31 32 32 33 34 34 32 31 30 30 32 33 33 32 31 30 29 30 31 31 31 32 33 34 36 38 37 35 35 31 19 14 21 30 32 31 31 32 31 31 30 29 29 29
34 34 35 34 34 34 33 33 33 33 33 33 33 33 33 33 33 33 34 34 34 33 33 33 31 30 28 27 25 21 26 33 31 30 30 30 30 29 29 29 30 31 32 33 34 35 35 36 36 36 35 33 31 31 32 34 33 33 33 31 29 30 30 29 30 31 33 35 36 40 41 36 33 28 15 11 23 32 34 32 31 32 32 33 33 32 31 30
34 34 34 33 33 33 33 33 33 34 34 34 35 35 35 35 35 34 35 35 35 34 34 34 33 32 30 29 25 23 29 34 32 31 32 32 31 30 30 31 32 33 34 34 35 35 36 37 37 37 37 36 33 33 34 34 35 35 35 33 30 31 29 26 28 30 33 36 37 42 44 36 30 24 16 15 24 31 34 33 31 32 32 34 35 34 33 31
35 35 35 35 35 34 34 34 34 35 35 35 36 36 36 36 35 35 35 36 36 35 35 35 35 34 33 29 25 27 31 32 33 33 34 34 33 32 32 32 33 34 34 34 34 35 36 38 38 38 38 38 34 34 35 35 37 36 36 36 31 32 30 24 27 31 34 37 37 42 46 37 27 21 19 21 26 31 34 33 31 31 32 33 34 35 34 32
38 38 38 38 37 37 37 37 36 36 36 37 37 37 38 37 37 36 37 37 37 37 37 38 38 37 37 30 26 30 33 32 34 35 37 37 35 34 34 34 34 35 34 35 35 36 38 39 40 39 38 37 35 35 37 37 38 37 38 40 35 34 30 22 28 34 35 38 37 42 47 39 27 21 21 24 28 32 34 33 32 31 31 31 31 33 33 33
41 41 41 41 41 40 40 39 39 39 39 39 39 40 39 39 39 39 39 39 39 39 39 40 40 40 40 34 30 33 34 34 36 37 39 38 36 35 35 36 36 35 36 36 37 38 39 40 41 41 38 37 36 37 39 39 38 37 39 40 37 39 35 26 31 35 34 37 38 42 49 44 32 22 21 26 30 33 35 34 33 33 32 31 30 31 31 32
43 43 43 43 43 42 42 42 41 41 41 41 41 41 41 41 41 41 41 42 42 42 42 43 43 44 44 37 33 35 35 36 38 38 39 38 36 36 36 37 37 36 38 38 39 40 41 42 42 42 40 38 37 39 41 41 37 36 41 41 38 42 43 35 33 33 35 37 39 44 49 48 39 28 23 28 33 35 37 35 33 34 34 33 32 31 31 31
45 45 45 45 44 44 44 44 43 43 43 43 42 43 43 43 43 43 43 43 44 44 45 45 44 46 47 40 34 35 35 37 39 39 39 38 37 37 37 38 39 39 40 40 40 41 42 44 45 43 41 37 36 40 44 43 38 35 42 45 43 45 47 42 34 31 35 40 43 47 50 50 45 36 29 30 35 38 39 36 34 34 35 34 33 32 31 31
46 46 46 46 46 46 46 45 45 44 44 44 43 44 44 45 45 45 45 44 45 45 46 46 45 47 47 40 35 35 36 38 40 40 40 39 39 39 40 41 41 41 42 42 42 42 44 47 47 45 42 36 36 40 45 45 39 38 43 48 48 47 46 45 37 30 34 42 46 50 52 51 47 42 37 34 35 39 40 37 35 35 34 34 33 32 32 32
47 47 47 47 46 46 46 46 45 45 44 44 44 44 45 45 46 46 46 45 46 46 47 47 46 48 47 41 38 37 37 40 42 41 41 40 40 41 42 42 43 43 44 44 43 44 46 48 49 48 43 36 36 41 46 45 42 43 47 48 49 48 46 45 40 33 34 42 47 51 52 50 47 45 42 37 36 40 41 38 36 35 34 34 34 33 33 33
48 48 48 48 47 47 47 46 46 45 45 45 44 44 45 46 47 47 47 47 47 47 49 48 47 49 48 43 41 41 39 40 41 42 41 41 42 43 44 45 45 45 46 46 45 46 48 50 51 50 42 35 37 42 46 45 45 48 50 49 49 49 47 44 41 37 38 45 48 49 49 48 47 44 41 39 37 39 38 36 36 35 35 36 35 34 33 34
49 49 49 49 49 48 48 47 47 46 46 46 46 46 47 47 48 49 49 49 49 49 51 51 50 50 49 46 45 44 42 40 39 38 39 40 42 45 47 47 48 48 48 46 47 49 50 51 52 48 40 36 39 44 47 47 48 50 51 51 50 50 47 43 42 41 42 49 50 48 49 48 47 44 41 40 38 37 34 33 35 36 38 39 37 34 33 34
51 51 50 50 50 50 49 49 48 48 48 48 49 50 50 50 51 51 52 51 51 51 52 52 53 51 49 49 50 48 45 41 38 36 36 37 40 44 46 48 50 51 49 48 50 51 52 54 52 44 38 39 44 46 48 49 49 50 51 52 51 50 48 46 45 43 44 50 50 49 51 48 46 45 42 40 39 38 33 32 33 35 38 40 38 34 33 33
53 52 52 52 52 52 51 51 51 51 51 51 52 52 53 54 54 54 55 54 52 52 53 53 54 53 51 51 51 50 48 44 39 37 37 37 38 41 44 47 49 50 50 51 52 51 54 55 49 42 42 45 47 47 48 49 50 51 50 51 51 50 50 49 48 47 48 51 50 50 51 49 47 45 42 39 37 37 36 31 30 31 33 34 33 33 33 32
54 54 54 54 54 54 54 54 54 54 54 54 54 54 55 55 56 56 57 57 54 52 54 54 54 55 54 53 52 52 50 45 42 40 39 39 39 40 43 46 47 49 51 51 50 51 55 54 47 44 47 47 47 47 48 50 50 51 50 51 52 50 51 53 51 49 49 51 51 50 50 49 48 45 41 37 34 34 35 33 30 30 30 29 29 31 33 33
56 55 55 55 55 55 55 56 55 56 56 56 56 56 56 56 57 57 58 60 58 54 53 54 56 57 55 54 53 52 51 48 45 43 42 42 41 41 43 45 47 49 48 46 47 51 55 52 47 47 48 47 48 48 48 49 50 50 49 51 52 50 51 53 53 53 52 51 50 50 50 47 45 43 38 34 32 32 35 35 32 29 30 29 29 30 32 34
58 57 57 57 57 57 57 57 57 57 57 57 57 58 58 58 58 59 60 61 62 58 55 55 57 57 56 54 52 50 50 49 46 45 45 45 43 43 45 46 48 47 45 44 47 53 54 49 46 47 47 47 48 49 47 46 48 50 50 49 49 50 52 52 53 54 54 53 51 51 51 44 40 41 38 34 34 35 35 34 30 26 28 30 29 30 32 33
60 59 59 59 59 59 58 58 58 58 58 58 59 59 59 60 60 61 61 63 64 61 59 59 57 55 54 52 50 49 50 49 47 48 48 47 46 47 47 47 47 46 45 46 50 55 52 45 45 48 49 49 50 50 45 42 46 51 49 46 46 49 51 51 53 54 54 54 53 53 53 47 40 40 41 38 38 38 36 33 28 25 26 28 27 26 30 33
60 61 62 62 61 60 59 59 59 60 60 60 60 60 61 61 61 61 61 64 67 64 63 63 59 54 52 51 50 49 50 49 49 50 50 50 49 48 49 49 46 46 46 48 53 55 50 46 46 48 49 51 51 47 42 41 46 50 48 46 47 49 50 52 53 55 55 55 54 54 56 53 44 40 43 43 42 41 38 35 31 25 24 26 27 26 27 30
56 58 61 63 63 62 61 60 61 62 62 61 61 61 62 61 62 61 60 64 67 65 64 64 61 57 53 51 50 50 51 51 51 52 51 50 51 50 50 49 47 47 47 49 53 52 49 47 47 48 50 50 48 44 42 44 47 48 47 48 49 49 50 51 52 54 55 54 55 54 55 54 46 41 46 48 47 45 42 41 37 31 28 28 29 31 31 30
53 53 55 58 60 60 59 59 60 61 61 60 60 60 60 60 60 58 59 64 67 65 64 62 61 60 57 54 53 52 53 53 52 51 49 49 50 51 51 50 50 50 49 51 52 50 49 48 48 49 49 48 46 46 46 47 47 47 49 50 51 51 50 51 52 54 55 55 57 56 53 52 49 45 48 50 49 49 48 46 44 41 40 36 33 35 38 36
52 53 53 54 55 55 54 55 55 56 57 56 57 57 56 56 54 53 58 64 66 64 63 61 61 62 61 58 55 51 49 49 48 48 48 49 49 50 51 51 51 51 51 53 52 50 49 49 49 50 49 48 49 49 49 49 50 50 50 51 52 53 52 53 55 55 57 59 58 56 52 51 54 52 51 52 53 54 54 51 50 50 50 46 41 37 38 41
51 53 53 54 53 52 51 50 50 51 51 50 51 51 51 52 51 52 58 62 61 60 59 60 61 60 58 56 52 48 46 45 46 47 48 49 49 50 50 51 52 52 52 53 52 50 50 51 51 51 51 52 52 52 51 51 52 52 51 52 53 54 55 57 59 58 60 60 58 56 52 52 57 58 57 58 58 59 59 57 58 58 57 55 51 45 42 43
51 52 52 52 52 51 51 50 47 46 46 46 46 48 50 53 53 54 56 56 55 55 54 55 56 55 53 52 51 51 49 47 47 47 47 48 49 49 49 50 51 52 51 51 51 51 51 53 53 53 53 53 53 53 53 52 52 51 51 52 53 55 57 60 61 60 60 59 58 57 56 58 63 62 61 62 61 61 62 62 64 64 62 62 62 59 55 51
52 52 52 53 52 52 51 50 48 46 46 47 48 48 49 53 55 53 52 52 52 52 49 50 52 52 53 53 53 54 52 51 50 49 49 48 48 47 48 49 51 52 52 52 53 54 54 53 53 54 53 52 54 55 54 54 54 53 54 54 54 56 60 62 62 61 62 61 59 58 59 66 69 65 63 64 63 63 65 65 66 66 65 65 67 68 67 62
51 52 52 52 52 50 49 49 51 51 50 52 53 50 51 55 55 54 54 54 54 54 53 55 56 58 58 57 56 55 55 56 55 54 54 53 50 48 47 48 50 53 54 55 56 57 57 55 53 55 56 55 57 57 55 56 56 57 58 56 57 59 60 61 60 61 63 63 62 63 67 73 72 68 67 67 67 68 70 69 68 68 68 67 68 69 69 69
54 53 54 53 52 51 49 50 54 56 55 55 55 55 57 59 58 57 58 59 59 59 58 60 61 63 62 60 58 58 59 61 60 59 59 58 56 53 51 51 51 53 56 58 59 59 62 61 58 61 64 63 63 62 59 59 60 62 61 60 62 60 57 58 59 61 63 65 68 71 74 76 74 72 71 71 71 72 72 72 71 70 70 71 71 70 69 69
59 58 57 56 55 55 55 55 56 58 59 58 58 60 62 62 60 59 59 60 60 58 56 57 57 59 60 60 59 60 62 63 63 62 61 60 60 58 56 55 55 56 57 59 59 61 65 64 61 64 68 67 68 67 65 65 66 67 67 65 65 61 58 61 63 63 64 68 73 74 77 78 76 76 76 73 72 72 72 72 72 72 73 73 72 72 72 70
64 64 62 61 60 60 59 59 59 60 60 60 62 65 65 65 64 63 61 60 59 57 56 57 56 57 59 60 59 60 61 62 63 63 62 62 62 61 59 59 58 59 59 59 60 61 64 65 64 65 69 70 71 71 69 69 68 68 67 65 64 64 64 64 65 66 67 71 75 75 76 77 74 77 79 73 69 69 69 70 72 73 74 75 74 72 73 74
68 68 67 65 64 64 63 63 64 64 62 63 67 70 69 67 66 65 64 63 62 62 62 63 62 61 62 62 61 62 63 63 64 64 64 64 65 64 63 63 62 61 61 62 64 64 65 68 66 65 68 70 69 68 69 68 65 62 58 54 54 57 59 60 62 64 66 70 73 71 70 71 73 78 79 72 69 67 66 66 68 70 72 74 73 69 69 70
70 71 70 69 68 67 67 66 66 66 67 69 71 72 71 70 68 68 67 66 65 66 67 67 67 67 67 66 66 67 68 69 69 70 70 70 71 70 70 70 69 68 66 66 68 68 68 70 70 68 70 72 71 71 72 69 64 59 54 50 50 52 57 59 61 62 63 66 69 68 68 69 70 76 78 76 71 67 63 62 62 64 65 64 63 62 62 64
69 71 71 70 68 67 67 68 68 69 72 73 74 73 73 73 72 71 70 69 68 68 69 69 68 69 69 69 70 71 72 73 73 74 74 74 75 75 75 74 72 71 70 67 66 66 65 68 69 68 69 74 76 76 72 65 61 60 59 59 60 63 66 67 67 66 65 68 70 71 74 71 64 67 77 82 77 69 65 62 59 58 58 58 60 63 63 63
68 69 69 67 65 64 65 67 69 71 73 74 75 75 74 73 72 71 70 70 70 70 70 70 70 70 70 70 70 71 73 75 75 76 77 77 77 77 76 75 72 71 71 68 64 63 64 66 68 66 67 72 73 71 68 65 65 67 69 71 73 74 74 74 75 75 74 76 78 77 79 76 67 61 64 68 68 65 64 64 64 62 62 63 65 66 67 66
68 68 67 65 64 64 64 66 67 69 72 74 74 73 71 70 70 70 70 71 71 71 70 70 70 70 70 70 70 70 73 75 76 77 78 79 79 79 78 76 74 72 72 71 71 70 69 69 70 70 69 70 70 68 69 72 74 76 78 78 77 77 77 77 80 80 79 81 81 81 83 84 79 72 67 65 66 67 70 73 76 76 74 72 69 67 66 61
68 67 66 66 65 64 65 67 68 69 71 70 69 68 68 69 69 70 70 71 71 70 70 70 69 69 69 69 69 70 72 74 75 76 76 78 79 79 79 79 77 75 75 75 75 73 69 68 70 71 71 71 72 72 72 73 75 77 78 77 76 76 75 76 78 78 78 78 77 81 85 86 84 80 76 75 75 75 77 79 80 80 78 76 73 70 64 58
68 67 66 66 65 66 68 69 69 69 68 67 66 67 67 68 69 69 70 71 70 70 70 70 69 69 69 69 70 71 71 74 76 75 74 76 77 76 77 78 79 78 77 76 74 72 71 70 70 70 71 73 76 77 77 76 77 78 77 75 75 75 73 74 75 72 72 72 70 73 78 78 77 75 73 74 75 74 74 73 71 71 71 71 70 69 69 70
69 68 67 66 67 68 69 69 68 69 68 68 68 68 68 69 69 68 69 71 71 71 71 71 71 71 71 71 72 72 72 74 76 76 75 75 75 75 75 76 78 79 79 78 76 76 76 75 74 73 73 76 81 83 82 80 79 78 78 77 76 76 74 74 75 76 78 79 78 82 85 83 80 77 76 77 78 77 75 72 68 65 64 65 68 74 80 83
70 70 69 68 68 69 69 68 68 69 69 69 70 69 68 69 68 67 69 71 72 72 73 73 73 73 74 74 75 75 74 74 76 76 76 76 75 75 76 76 77 78 79 79 77 76 75 75 76 76 75 76 80 82 82 82 81 81 82 82 81 81 80 79 81 84 85 86 89 90 90 90 88 85 85 86 85 84 83 80 77 75 72 73 79 88 93 90
71 70 69 69 70 70 70 68 68 69 68 68 70 70 68 68 68 68 69 70 71 72 73 74 74 74 76 76 76 78 77 77 77 77 77 77 77 77 77 76 77 78 79 79 78 75 74 75 78 79 79 78 78 79 81 82 83 82 81 81 80 80 81 81 84 87 86 89 93 90 87 90 90 87 87 88 86 85 84 83 84 85 85 87 91 95 97 95
70 69 68 69 70 70 70 69 68 68 67 67 69 69 68 67 68 68 68 69 70 70 72 73 73 72 73 74 75 77 77 77 77 77 77 77 77 77 76 75 76 77 77 78 78 78 78 78 79 80 80 79 77 77 78 80 81 80 78 77 76 76 77 80 84 85 84 87 90 88 85 86 85 82 82 82 81 81 81 81 83 84 85 86 88 91 93 96
70 69 69 70 70 69 69 70 69 69 68 68 69 69 68 67 67 68 68 69 70 70 71 72 73 72 72 72 72 74 75 75 75 75 75 76 76 77 76 75 75 75 76 76 76 76 78 79 79 79 79 78 77 76 76 76 78 78 77 75 74 75 76 79 81 81 80 83 84 82 82 81 79 78 77 77 77 76 75 74 74 74 74 75 76 79 82 86
70 70 69 70 70 68 68 69 69 69 69 68 69 69 67 67 67 67 67 69 70 70 70 71 73 73 73 73 72 73 73 73 73 74 74 75 75 75 75 75 74 73 72 72 72 71 73 76 77 77 78 78 75 74 74 74 75 75 75 73 72 73 75 76 75 75 76 78 79 78 79 78 76 74 73 72 71 69 68 67 66 68 69 70 72 75 77 80
70 71 70 70 70 69 69 69 69 69 70 68 69 69 67 67 68 67 67 67 67 68 68 70 72 72 72 72 72 72 72 71 72 72 72 72 71 70 70 70 69 70 70 70 69 68 69 71 71 70 73 74 72 71 71 70 70 71 70 70 71 73 76 76 74 74 76 79 80 78 78 79 79 77 75 73 71 70 70 69 69 71 72 71 70 69 71 72
71 72 72 72 72 70 70 70 70 70 70 69 69 70 68 67 68 67 67 67 67 67 67 68 70 71 71 70 70 70 70 70 71 70 69 69 68 66 66 66 64 64 62 61 60 59 59 61 61 60 64 67 64 63 63 63 66 69 66 67 70 70 72 74 74 73 75 78 80 80 80 80 81 80 79 76 74 73 73 74 75 75 74 71 68 66 67 66
Wind_Direction
259 261 262 264 266 268 270 272 273 275 277 278 279 280 280 281 281 281 281 282 282 283 285 286 287 288 290 291 293 295 295 295 294 294 296 296 295 297 297 297 297 298 299 300 300 301 302 302 301 301 301 301 300 300 300 299 299 300 302 302 300 298 300 301 298 298 297 298 300 298 298 300 298 297 299 299 298 298 298 293 293 296 294 296 300 302 304 305
261 262 264 265 267 268 270 271 272 274 275 276 278 279 279 281 281 281 282 282 282 283 283 284 285 285 287 289 290 292 293 293 292 292 295 294 294 295 295 296 296 297 298 298 298 298 299 298 298 298 297 297 297 297 296 295 295 297 299 299 294 293 298 297 294 294 294 295 294 293 293 294 292 292 295 296 294 295 295 286 285 290 288 289 294 296 297 299
261 262 263 265 266 268 269 270 271 273 274 275 275 276 278 278 279 280 280 281 281 282 282 282 283 283 284 286 287 289 290 290 290 291 293 293 293 293 294 295 295 296 296 296 296 296 295 295 295 295 294 294 294 294 294 292 293 295 297 296 290 291 295 292 290 291 292 292 290 289 290 290 288 290 293 292 291 296 291 280 281 286 285 284 287 291 292 292
261 262 263 264 265 267 268 269 271 272 272 273 274 274 275 276 276 277 277 278 278 279 279 280 280 280 281 282 283 285 286 286 286 288 289 289 290 291 292 293 293 294 294 294 294 293 293 293 293 292 292 292 292 293 292 290 291 294 295 292 288 289 292 290 288 289 290 289 288 287 287 287 287 289 291 290 293 295 279 274 279 283 282 283 286 287 287 286
262 263 264 265 266 267 269 270 271 271 272 272 273 273 274 274 274 275 275 275 276 276 276 277 277 278 278 279 280 281 283 283 284 285 285 285 287 288 289 290 290 291 291 292 292 291 291 291 291 290 290 290 291 292 290 288 290 293 292 289 287 287 288 288 288 289 288 287 287 285 284 285 285 286 289 290 294 288 268 272 280 283 282 285 286 284 283 282
263 264 265 266 267 268 269 270 271 272 272 273 273 273 273 274 274 274 274 274 274 274 274 275 275 275 276 276 278 279 282 282 281 282 283 284 285 286 287 288 288 289 290 290 290 291 291 291 290 289 288 290 291 291 290 289 291 293 291 288 286 286 288 287 286 288 288 287 287 284 283 284 283 285 289 292 295 282 269 274 281 284 284 283 281 279 276 276
263 264 265 266 267 268 269 270 271 271 272 272 273 273 273 274 274 274 274 274 274 274 274 273 273 274 274 275 276 279 282 281 280 281 283 285 286 286 287 288 289 290 290 290 291 291 291 291 290 287 288 291 291 292 292 291 292 296 293 287 286 288 289 286 285 288 288 288 287 284 284 284 283 286 291 297 296 280 273 276 280 282 282 279 273 270 269 269
263 263 264 265 266 267 268 269 270 270 271 271 272 272 273 273 273 274 274 274 274 275 275 274 274 274 273 274 275 279 282 279 279 282 284 286 286 287 288 288 290 291 291 292 292 292 292 292 289 289 291 291 291 292 291 290 293 295 292 288 288 289 288 286 286 287 286 287 286 284 283 282 283 287 297 304 290 275 275 278 280 281 281 277 271 267 267 268
261 262 263 263 264 265 266 267 268 269 270 270 271 271 272 272 273 273 273 274 274 274 274 274 274 273 273 274 275 282 282 278 280 284 285 286 286 286 286 288 290 291 291 292 293 293 292 291 291 291 291 290 290 290 289 289 291 292 290 289 290 289 286 287 288 287 285 284 282 281 279 279 281 288 306 310 281 274 276 279 280 281 280 278 274 269 268 268
260 261 261 262 262 263 264 266 267 268 269 270 270 271 271 272 272 272 273 272 272 272 272 272 272 272 273 273 277 284 280 277 282 285 285 285 283 283 285 287 289 290 290 291 291 291 291 290 291 290 289 289 289 288 287 288 289 288 288 289 290 288 286 289 289 286 283 281 279 278 277 278 282 290 309 299 276 275 278 280 282 282 282 279 277 272 269 267
261 261 261 262 262 263 264 265 266 267 268 269 270 271 271 271 271 272 271 271 271 270 270 270 270 270 271 272 277 279 275 278 284 284 284 282 281 282 284 287 288 289 290 290 290 290 290 289 289 288 288 288 288 288 287 287 287 287 287 288 288 287 287 290 288 283 279 277 277 278 278 281 286 293 301 285 273 275 279 282 284 284 282 280 279 275 272 269
262 262 263 263 263 263 264 265 266 267 267 268 269 269 270 270 270 270 270 271 271 271 271 271 270 270 270 272 276 274 273 279 283 283 282 280 280 282 284 285 286 287 288 288 288 289 289 288 288 288 288 288 289 288 286 286 286 287 288 286 286 285 286 290 284 277 275 275 277 280 281 284 287 291 292 281 274 275 278 283 286 284 282 282 282 279 276 273
263 264 264 265 265 265 265 265 266 266 267 268 268 269 269 269 269 269 270 270 270 271 271 271 271 272 271 273 275 274 275 279 280 280 279 278 280 282 282 282 283 284 285 285 286 286 286 287 287 287 288 290 291 289 287 287 286 287 287 285 286 283 283 283 274 271 276 281 283 283 284 285 286 284 284 279 274 276 280 284 285 284 284 285 286 284 281 278
264 264 265 265 266 266 266 266 266 266 267 267 268 269 269 269 270 270 270 270 271 272 272 272 273 273 273 274 274 273 276 277 275 275 275 277 279 279 278 279 280 281 281 281 283 284 284 285 284 285 286 289 290 290 289 288 288 290 288 287 288 283 277 270 266 273 281 285 285 283 284 286 285 280 279 276 274 276 281 284 284 284 285 286 288 289 288 286
264 265 265 265 266 266 266 267 267 267 267 267 268 269 269 270 270 270 270 271 272 272 272 273 273 274 274 273 273 273 273 274 273 272 273 276 276 275 276 277 278 279 278 279 280 282 282 282 282 282 284 286 289 289 288 288 290 293 290 288 286 280 276 271 270 278 284 283 282 281 282 283 283 280 274 272 274 277 280 283 283 284 285 287 289 291 291 289
264 265 265 265 266 266 266 267 267 267 267 267 268 268 269 269 269 269 270 270 271 271 272 272 272 273 273 273 273 273 273 272 272 273 274 274 273 274 275 275 276 276 276 277 278 279 281 281 280 280 281 284 287 288 287 288 292 293 288 284 282 279 281 282 281 282 284 282 280 278 279 280 282 282 275 269 272 276 279 281 283 283 284 286 289 290 289 285
264 264 265 265 266 266 266 266 266 266 267 267 267 268 268 268 269 269 269 269 270 270 271 271 272 272 273 275 275 274 274 274 273 273 273 273 273 274 274 274 275 275 275 276 276 278 279 278 278 278 279 282 287 287 287 289 291 288 283 282 283 284 287 290 291 290 285 281 279 277 277 279 281 281 277 272 273 277 279 281 282 282 283 283 284 284 284 281
263 263 264 264 265 265 266 266 266 266 266 266 266 267 268 268 269 269 269 269 269 270 270 271 271 272 273 276 277 277 276 274 273 272 272 273 274 274 274 274 273 274 274 274 275 276 276 276 276 276 278 284 288 286 285 287 288 284 282 282 285 288 289 291 296 297 288 282 279 279 281 283 283 281 279 276 275 278 280 282 283 282 280 278 277 279 280 279
263 263 264 264 264 264 265 265 266 266 266 266 266 266 267 268 269 270 270 270 270 270 271 271 270 272 274 276 278 280 278 275 273 273 272 273 274 275 274 274 273 273 272 273 274 273 273 273 274 275 281 288 287 282 281 282 282 282 282 284 286 287 288 291 295 296 293 286 282 283 286 288 288 287 287 284 278 277 280 283 283 281 277 274 274 276 279 278
263 263 263 264 264 264 264 264 265 265 266 267 267 268 268 268 269 270 271 271 271 271 272 272 271 271 274 277 278 279 278 276 276 277 276 273 272 272 272 272 272 271 271 272 272 271 271 272 273 277 285 288 280 276 276 278 279 281 283 284 285 285 287 290 292 293 293 288 286 288 288 289 290 291 292 290 286 284 285 285 281 279 277 275 275 276 277 276
263 263 263 263 264 264 264 264 264 265 265 266 268 269 269 269 270 270 270 271 271 272 272 273 273 273 274 276 278 280 279 277 277 280 278 274 270 269 270 271 270 270 271 270 270 270 272 272 274 280 284 278 272 273 275 277 279 280 281 283 284 285 287 289 290 291 289 286 288 290 289 288 289 290 291 293 294 295 295 290 285 280 278 278 279 279 275 272
262 262 263 263 264 264 264 264 265 265 266 267 268 269 270 271 271 271 271 271 270 271 272 273 274 275 275 276 278 280 280 279 279 279 277 274 271 270 269 268 268 269 268 267 268 270 271 271 274 278 275 270 271 274 275 276 277 278 280 282 283 285 287 288 288 288 286 286 288 289 289 288 288 289 290 293 296 298 297 294 289 285 284 284 284 280 274 269
261 261 262 262 263 264 264 265 265 266 267 268 269 269 270 271 272 272 273 272 271 270 271 273 274 274 275 276 277 279 280 281 279 277 276 275 272 270 268 268 268 267 266 266 269 271 271 272 273 272 270 271 273 273 273 274 275 277 279 281 282 285 288 287 287 287 285 285 286 287 288 288 288 289 290 293 297 296 295 293 292 293 294 293 287 280 275 269
262 262 262 262 263 263 264 265 265 266 267 268 269 269 270 270 271 272 273 273 272 271 271 272 273 273 274 275 277 279 280 279 278 277 276 274 272 269 268 268 267 267 268 270 270 269 269 271 272 271 272 273 273 272 273 273 274 277 279 280 282 285 285 285 287 287 285 284 286 288 287 286 288 289 291 295 294 289 289 290 291 296 298 295 289 284 279 273
263 263 263 263 263 264 264 265 266 266 267 268 268 269 269 270 270 271 271 272 273 273 271 270 271 273 274 275 277 278 278 277 277 277 276 274 273 271 269 268 268 269 271 271 269 267 268 270 273 273 273 272 272 272 272 273 277 279 278 279 281 283 282 283 286 286 285 285 286 287 287 286 287 290 295 296 290 284 284 285 290 296 295 292 290 286 281 277
262 263 263 263 263 264 265 266 266 267 268 268 268 269 269 270 270 270 271 272 273 273 273 270 269 271 274 275 276 276 276 276 276 276 276 276 275 273 270 269 269 270 270 269 267 266 268 271 272 271 272 272 271 272 274 276 278 277 276 278 280 280 281 282 283 283 284 286 286 286 285 285 289 294 298 297 290 286 286 287 293 296 293 291 290 285 280 279
262 262 262 262 263 264 265 266 266 267 267 268 268 269 269 270 270 270 272 272 272 273 273 272 271 271 272 273 274 274 274 275 275 275 276 275 274 273 272 271 271 270 268 267 266 266 269 270 269 269 270 270 271 274 276 274 273 274 277 279 278 279 280 281 281 282 283 284 284 283 283 287 292 296 299 297 290 288 290 294 297 297 292 288 287 284 280 278
262 262 262 262 261 262 264 266 267 267 267 267 268 268 269 269 270 270 272 272 272 272 272 273 274 274 272 271 271 272 272 273 274 274 273 273 272 271 271 271 271 269 267 266 265 267 268 268 268 268 268 269 271 273 272 269 271 276 279 278 278 279 279 281 281 282 283 282 281 279 283 289 291 291 294 292 288 290 294 296 298 297 292 288 286 285 284 281
261 261 262 262 261 262 264 266 267 267 267 268 267 268 268 268 269 270 269 269 271 272 272 274 275 275 274 272 271 270 270 271 271 271 272 273 271 269 268 269 269 268 266 265 265 266 268 269 268 268 268 269 269 268 268 269 271 273 275 277 278 278 279 280 280 281 282 280 278 279 285 290 289 286 285 284 286 291 293 295 297 296 293 291 288 285 285 284
260 260 260 261 261 261 262 264 266 267 268 269 269 268 268 267 268 269 268 268 271 272 273 274 274 274 274 274 272 269 267 266 266 269 271 272 271 269 267 266 267 266 264 263 264 265 267 267 267 268 269 269 267 265 267 269 269 269 271 274 275 276 277 277 276 277 277 277 279 283 286 287 287 285 283 284 287 290 291 294 295 293 292 291 288 285 283 283
259 260 260 260 260 260 260 262 266 269 270 271 271 268 267 268 268 268 268 270 273 272 272 272 271 272 274 273 272 269 265 262 262 265 267 268 269 269 268 266 265 264 261 261 263 263 265 266 266 268 268 267 266 266 267 267 268 268 269 271 271 272 272 272 273 272 273 278 283 285 284 281 279 281 283 286 288 289 293 296 294 292 292 292 290 287 282 280
260 260 260 259 259 259 259 261 264 268 271 273 272 270 269 270 268 267 268 271 272 271 270 269 268 269 270 270 271 270 268 265 264 264 264 265 266 268 269 268 267 265 262 261 262 262 262 264 266 266 266 267 267 267 268 269 270 270 270 270 269 270 270 271 271 271 273 280 284 283 281 276 274 276 280 282 286 290 293 293 292 292 293 293 293 292 288 284
263 263 262 262 261 261 262 263 264 267 271 271 270 268 265 264 266 267 268 269 270 272 272 269 267 268 268 269 270 271 271 270 269 268 266 266 265 266 268 269 269 269 266 263 262 262 261 262 265 266 266 266 267 268 270 271 271 271 270 270 269 269 270 270 271 274 278 281 280 278 276 274 275 278 281 284 287 289 289 288 288 289 290 291 292 293 293 292
261 262 263 263 264 265 265 265 265 265 265 262 261 261 259 259 263 266 266 266 268 270 272 271 270 269 269 270 270 271 272 273 272 271 270 269 267 265 266 268 270 270 269 267 264 264 264 262 263 267 267 266 268 270 271 272 272 272 272 270 269 270 272 272 274 277 278 277 275 272 272 273 276 279 281 284 285 285 285 286 286 286 287 287 288 290 292 293
259 259 260 261 263 265 264 262 260 260 260 259 259 259 258 259 261 262 262 263 265 267 269 271 271 269 268 268 269 270 272 273 272 272 271 270 269 268 267 269 270 271 271 270 268 267 266 263 263 266 268 269 270 271 272 272 272 272 272 271 271 274 276 276 276 275 275 274 272 271 272 273 276 278 279 282 283 282 283 283 284 285 284 284 285 287 288 289
261 261 260 260 263 265 264 262 260 260 261 262 262 261 258 259 261 261 261 261 263 266 268 269 269 267 266 266 267 269 271 272 273 272 271 270 270 269 269 271 272 272 273 273 273 271 269 267 265 268 270 272 273 273 272 272 272 272 271 272 274 276 275 275 275 274 274 273 271 272 274 277 279 280 281 281 281 281 280 281 282 282 281 282 283 285 287 287
265 265 263 263 265 267 266 265 264 263 263 262 262 261 259 258 259 260 262 263 265 267 268 268 266 265 265 266 266 268 269 270 271 272 272 271 270 270 271 272 273 273 274 275 275 274 273 271 268 269 272 273 273 274 273 273 273 273 274 275 276 274 273 274 274 274 273 273 273 274 276 279 280 281 283 284 283 282 280 279 278 278 278 279 280 283 286 287
267 267 266 265 267 268 268 267 266 265 264 262 262 261 260 260 261 263 266 268 269 269 268 268 266 265 265 265 265 266 267 268 269 270 270 271 271 271 272 273 273 273 273 274 274 274 276 276 271 269 272 274 274 275 276 276 277 279 279 276 272 270 270 271 271 272 272 272 273 274 275 277 280 283 286 288 287 283 280 279 278 277 277 278 280 282 283 283
269 269 268 267 269 269 268 267 266 265 264 263 265 265 264 265 266 267 269 269 269 269 268 268 267 267 266 266 266 266 267 268 268 269 269 270 271 271 272 272 272 273 273 274 275 275 277 278 275 270 271 275 276 276 277 279 281 281 278 272 268 268 271 273 272 272 273 272 274 275 274 275 281 286 288 289 288 284 281 279 278 278 278 280 281 280 280 279
270 270 269 269 269 268 268 267 266 265 265 266 268 268 268 268 268 268 269 269 269 268 268 268 268 267 267 266 266 267 268 268 269 269 270 270 271 271 272 273 274 275 275 275 276 277 277 278 277 273 271 272 273 274 277 279 278 276 272 270 271 272 274 276 275 274 275 275 276 277 276 276 280 283 284 284 285 285 284 283 280 278 277 277 277 278 278 277
272 271 271 270 268 267 266 265 265 265 266 267 268 269 269 269 269 269 270 269 268 268 268 268 268 268 268 267 267 268 268 269 269 269 270 270 271 272 272 273 275 275 275 275 274 274 274 275 276 275 272 272 273 275 277 276 273 272 271 271 272 273 274 274 274 275 276 277 278 279 279 277 276 275 275 276 278 280 283 284 283 281 279 277 277 277 276 274
273 273 272 270 269 268 266 264 264 265 266 268 270 270 270 270 270 270 269 268 267 267 267 267 267 268 268 268 268 267 267 268 267 268 268 269 270 271 272 273 274 275 274 274 273 273 273 273 273 273 273 273 273 273 272 271 271 271 270 271 272 272 273 274 275 277 278 278 279 279 278 278 276 274 271 270 270 273 276 279 281 282 283 283 280 276 271 270
272 272 272 271 270 269 267 265 266 267 268 270 270 269 268 268 268 268 268 268 267 267 267 267 267 267 267 267 267 267 267 267 267 266 267 267 267 268 269 272 273 274 274 275 275 275 274 272 271 272 271 271 271 270 269 269 270 271 271 273 274 275 275 276 278 280 279 277 278 278 277 278 279 278 276 275 273 272 273 275 278 280 281 281 279 274 269 269
271 271 271 270 270 268 267 268 270 270 270 270 269 267 267 267 267 268 269 269 268 268 268 268 268 268 268 268 267 267 267 267 267 266 266 266 267 267 268 270 271 273 274 274 275 274 273 272 271 271 271 271 271 270 270 270 271 272 273 274 274 275 275 276 277 278 276 274 274 274 274 276 279 281 280 279 279 277 277 277 277 276 275 272 270 269 270 271
269 269 269 268 268 267 267 269 271 270 269 269 268 268 267 267 268 269 269 268 268 268 268 268 268 268 268 268 267 267 267 268 269 268 267 267 267 267 267 268 269 271 272 273 274 274 273 273 273 273 272 273 273 273 273 274 274 274 273 273 272 272 272 273 273 272 271 272 272 272 273 275 276 276 277 278 278 278 277 275 273 269 265 262 263 267 270 270
268 268 268 268 267 266 267 268 268 267 268 269 268 268 267 268 269 268 267 267 268 268 268 268 268 268 268 268 268 268 268 268 269 270 270 269 268 267 266 266 267 268 269 271 273 274 274 273 273 273 273 273 274 274 274 275 275 274 274 274 273 274 273 273 271 270 272 274 273 272 275 276 276 275 276 277 276 275 274 273 270 266 262 260 263 267 269 268
268 268 268 267 267 267 268 268 267 267 267 267 267 267 268 268 268 267 266 266 267 267 267 267 267 267 268 268 269 269 269 268 269 270 271 270 270 269 269 268 268 268 268 269 271 272 273 272 272 272 273 273 274 275 275 274 274 274 274 274 274 274 274 273 272 272 275 275 273 274 275 276 277 277 277 277 277 277 276 274 271 268 266 264 264 265 267 269
268 268 268 267 267 268 269 268 268 268 267 267 267 267 268 268 268 267 266 266 266 266 266 267 267 267 267 268 268 269 269 269 269 269 270 271 271 270 270 269 270 270 269 269 269 270 270 271 271 271 272 272 272 272 273 272 272 272 272 272 272 271 271 271 271 273 274 273 274 277 278 277 278 279 278 279 279 278 277 276 275 274 272 271 270 269 269 270
268 268 268 268 268 269 269 269 268 268 268 268 267 268 268 268 268 267 268 267 266 266 266 267 267 267 267 267 267 267 268 269 269 270 270 270 271 271 270 270 269 270 270 270 270 270 271 271 271 271 271 271 270 271 272 271 271 271 270 271 272 272 272 271 272 272 272 272 274 276 276 276 278 279 278 278 278 277 277 277 277 276 276 275 275 274 274 273
269 269 269 269 269 269 269 269 269 269 268 268 269 269 269 269 267 266 266 266 266 266 266 266 267 267 267 267 268 268 268 269 269 270 270 270 270 271 272 271 270 270 269 269 269 269 269 270 271 271 272 272 272 272 272 272 272 271 269 268 269 270 270 270 271 272 272 272 273 273 273 274 275 275 275 275 275 276 276 276 276 277 277 278 278 277 276 275
269 269 269 269 270 270 270 270 270 270 269 270 270 270 269 269 268 268 267 267 266 266 265 266 266 267 267 267 267 268 269 270 270 270 270 271 271 271 272 273 273 273 272 272 273 272 272 272 273 274 274 275 276 277 277 276 275 272 270 270 269 268 268 269 271 272 271 271 271 271 271 271 271 272 273 275 275 275 275 276 277 278 278 278 276 274 272 270
269 269 269 269 269 269 269 269 269 270 270 270 270 269 269 269 269 269 268 267 266 266 267 267 268 268 268 268 268 268 268 269 269 269 269 269 269 269 270 271 273 273 272 272 272 272 273 273 273 272 271 272 274 274 273 271 267 265 271 276 275 272 271 271 272 271 269 268 268 269 269 271 272 273 274 275 276 277 277 278 278 278 277 275 272 270 268 265
Height
5883 5883 5884 5884 5884 5884 5884 5884 5884 5884 5885 5884 5885 5885 5885 5885 5885 5885 5885 5885 5885 5885 5885 5885 5885 5885 5884 5884 5884 5884 5884 5883 5883 5883 5883 5882 5882 5882 5881 5881 5880 5880 5879 5878 5878 5877 5876 5876 5875 5874 5874 5873 5872 5872 5871 5871 5870 5870 5869 5869 5867 5866 5866 5866 5865 5864 5864 5863 5862 5861 5860 5860 5859 5858 5859 5859 5858 5857 5857 5855 5855 5855 5854 5853 5852 5852 5852 5851
5881 5882 5882 5882 5882 5882 5882 5883 5883 5883 5883 5883 5883 5883 5883 5883 5883 5883 5883 5883 5883 5883 5883 5883 5883 5883 5883 5882 5882 5882 5882 5881 5881 5881 5881 5880 5880 5880 5879 5879 5878 5878 5877 5876 5876 5875 5874 5873 5873 5872 5871 5870 5870 5869 5869 5868 5868 5868 5867 5867 5864 5863 5864 5863 5862 5861 5861 5861 5860 5858 5858 5858 5857 5856 5856 5857 5856 5855 5855 5852 5852 5853 5852 5851 5851 5850 5850 5850
5879 5879 5880 5880 5880 5880 5880 5881 5881 5881 5881 5881 5881 5881 5881 5881 5881 5881 5881 5881 5881 5880 5880 5880 5880 5880 5880 5880 5880 5880 5880 5879 5878 5878 5879 5878 5878 5877 5877 5877 5876 5875 5875 5874 5873 5873 5872 5871 5870 5869 5868 5868 5867 5866 5866 5865 5865 5865 5865 5865 5862 5860 5862 5860 5859 5859 5858 5858 5857 5856 5855 5855 5854 5854 5855 5854 5854 5853 5852 5849 5848 5851 5850 5849 5849 5848 5848 5848
5877 5877 5877 5878 5878 5878 5878 5878 5878 5879 5879 5879 5879 5879 5879 5879 5879 5879 5878 5878 5878 5878 5878 5878 5878 5878 5878 5878 5878 5878 5878 5877 5876 5876 5876 5876 5875 5875 5874 5874 5873 5873 5872 5871 5871 5870 5870 5869 5868 5867 5866 5865 5864 5864 5863 5861 5862 5863 5863 5862 5859 5858 5860 5857 5855 5856 5855 5855 5855 5853 5852 5852 5852 5852 5852 5851 5852 5852 5848 5844 5845 5847 5848 5847 5847 5847 5846 5845
5874 5874 5875 5875 5875 5876 5876 5876 5876 5876 5876 5876 5876 5876 5876 5876 5876 5876 5876 5876 5875 5875 5875 5875 5875 5875 5875 5876 5876 5876 5875 5874 5873 5874 5874 5873 5873 5872 5872 5871 5871 5870 5869 5868 5868 5867 5867 5866 5865 5864 5863 5862 5862 5861 5860 5858 5859 5861 5861 5859 5856 5855 5857 5855 5851 5852 5852 5851 5851 5850 5849 5849 5849 5850 5850 5848 5849 5850 5844 5841 5842 5844 5845 5845 5845 5845 5844 5843
5871 5871 5872 5872 5872 5873 5873 5873 5873 5873 5874 5873 5873 5874 5873 5874 5874 5874 5873 5873 5873 5873 5872 5873 5872 5872 5872 5873 5873 5873 5873 5871 5871 5871 5871 5871 5870 5870 5869 5869 5868 5868 5867 5866 5865 5864 5863 5863 5862 5861 5860 5860 5859 5858 5857 5855 5855 5858 5858 5856 5853 5852 5854 5853 5849 5848 5848 5848 5847 5845 5846 5846 5845 5847 5847 5845 5847 5845 5840 5839 5840 5840 5842 5842 5842 5842 5841 5840
5868 5868 5869 5869 5869 5870 5870 5870 5870 5870 5870 5870 5870 5870 5870 5871 5870 5870 5870 5870 5870 5870 5870 5870 5870 5870 5870 5871 5871 5871 5871 5868 5867 5869 5868 5868 5868 5867 5866 5866 5865 5865 5864 5863 5862 5861 5860 5859 5859 5858 5858 5858 5857 5856 5854 5852 5852 5853 5855 5853 5851 5849 5850 5850 5848 5846 5845 5844 5843 5841 5842 5842 5841 5843 5845 5844 5844 5839 5836 5838 5837 5837 5838 5839 5839 5838 5837 5836
5865 5865 5865 5866 5866 5867 5867 5867 5867 5867 5867 5867 5867 5867 5867 5867 5867 5867 5867 5867 5867 5866 5867 5866 5867 5867 5867 5868 5868 5870 5869 5864 5864 5866 5866 5865 5865 5864 5864 5863 5863 5862 5861 5860 5859 5858 5857 5856 5855 5854 5855 5855 5854 5853 5851 5849 5849 5849 5850 5850 5848 5847 5846 5846 5845 5844 5842 5840 5839 5836 5838 5839 5837 5839 5842 5843 5840 5834 5832 5835 5834 5834 5835 5835 5835 5834 5833 5833
5861 5861 5862 5862 5863 5863 5863 5863 5864 5864 5864 5864 5864 5864 5864 5864 5864 5864 5864 5864 5864 5863 5863 5863 5864 5864 5865 5866 5866 5868 5866 5860 5861 5863 5863 5863 5862 5861 5861 5860 5860 5859 5858 5857 5856 5855 5854 5852 5851 5851 5851 5851 5851 5851 5848 5846 5846 5846 5845 5846 5846 5845 5843 5843 5842 5841 5838 5837 5835 5832 5833 5835 5834 5836 5840 5841 5836 5830 5829 5831 5830 5830 5831 5830 5830 5830 5830 5830
5858 5858 5858 5859 5859 5860 5860 5860 5860 5860 5860 5860 5860 5860 5861 5861 5861 5861 5861 5860 5860 5860 5860 5860 5860 5860 5862 5862 5864 5866 5862 5857 5860 5860 5860 5859 5859 5858 5858 5858 5857 5856 5855 5855 5853 5852 5851 5849 5848 5847 5847 5847 5848 5847 5845 5844 5843 5842 5841 5842 5843 5841 5841 5841 5839 5838 5834 5833 5831 5827 5827 5831 5832 5833 5837 5838 5831 5826 5825 5827 5827 5826 5826 5826 5825 5826 5826 5826
5855 5855 5855 5856 5856 5856 5857 5857 5857 5857 5857 5857 5857 5857 5857 5857 5857 5857 5857 5857 5856 5857 5857 5856 5856 5857 5858 5859 5862 5863 5858 5855 5858 5857 5856 5856 5855 5855 5855 5855 5854 5853 5852 5852 5850 5849 5848 5846 5845 5844 5843 5843 5844 5844 5842 5841 5839 5838 5837 5838 5839 5837 5838 5840 5836 5834 5830 5828 5828 5822 5821 5826 5830 5831 5834 5833 5828 5823 5821 5822 5823 5823 5822 5821 5821 5821 5821 5822
5851 5852 5852 5852 5853 5853 5853 5853 5854 5854 5854 5854 5853 5853 5853 5854 5854 5854 5853 5853 5853 5853 5853 5852 5852 5853 5854 5857 5860 5858 5855 5855 5855 5854 5853 5852 5852 5853 5852 5852 5851 5849 5849 5848 5847 5846 5844 5842 5841 5840 5839 5839 5841 5839 5838 5837 5835 5834 5833 5833 5836 5834 5834 5837 5833 5829 5826 5824 5825 5819 5814 5821 5828 5829 5829 5828 5824 5820 5818 5819 5820 5819 5818 5817 5816 5816 5816 5818
5848 5848 5848 5848 5849 5849 5850 5850 5850 5850 5850 5850 5849 5849 5849 5850 5850 5850 5850 5849 5849 5849 5849 5848 5848 5849 5850 5854 5857 5854 5853 5854 5852 5850 5848 5848 5849 5850 5849 5848 5847 5847 5846 5845 5844 5842 5840 5839 5837 5836 5836 5835 5837 5835 5833 5833 5831 5831 5829 5827 5830 5829 5830 5834 5828 5824 5824 5821 5821 5816 5808 5814 5825 5826 5826 5823 5819 5816 5815 5816 5816 5815 5814 5813 5813 5812 5812 5813
5843 5844 5844 5844 5845 5845 5846 5846 5846 5846 5846 5846 5846 5845 5845 5846 5846 5846 5846 5845 5845 5845 5845 5844 5844 5844 5845 5851 5853 5851 5850 5850 5849 5847 5844 5845 5846 5846 5845 5844 5844 5843 5842 5841 5840 5838 5836 5835 5833 5832 5833 5832 5832 5831 5828 5827 5827 5828 5824 5822 5824 5821 5823 5828 5823 5821 5823 5819 5817 5812 5803 5807 5818 5823 5823 5819 5815 5813 5811 5812 5812 5811 5810 5809 5809 5809 5808 5808
5839 5839 5840 5840 5840 5841 5841 5842 5842 5842 5842 5842 5842 5841 5841 5841 5841 5842 5841 5841 5841 5840 5841 5840 5840 5839 5840 5846 5849 5848 5848 5846 5844 5843 5842 5842 5842 5842 5841 5840 5840 5839 5838 5837 5836 5834 5832 5830 5828 5828 5829 5830 5829 5827 5824 5822 5824 5824 5819 5817 5818 5813 5812 5819 5822 5821 5820 5816 5813 5807 5800 5801 5809 5817 5820 5815 5811 5809 5807 5808 5809 5807 5806 5805 5805 5805 5804 5805
5835 5835 5835 5836 5836 5836 5837 5837 5838 5838 5838 5838 5838 5837 5837 5836 5837 5837 5837 5837 5836 5836 5836 5835 5836 5835 5834 5841 5845 5844 5844 5842 5839 5839 5839 5839 5838 5838 5838 5836 5836 5835 5833 5832 5831 5830 5828 5825 5823 5824 5825 5827 5827 5823 5819 5817 5821 5822 5814 5810 5810 5808 5806 5811 5819 5821 5817 5811 5807 5802 5797 5796 5802 5809 5813 5812 5808 5805 5803 5805 5805 5804 5804 5803 5802 5801 5801 5801
5830 5831 5831 5831 5832 5832 5832 5832 5833 5833 5833 5833 5833 5833 5832 5832 5832 5832 5832 5832 5832 5831 5831 5830 5832 5830 5829 5836 5839 5840 5839 5837 5836 5835 5834 5834 5834 5834 5833 5832 5831 5830 5829 5828 5827 5826 5824 5820 5818 5819 5821 5824 5825 5820 5814 5813 5816 5816 5810 5805 5804 5805 5804 5805 5812 5818 5814 5806 5800 5796 5792 5792 5798 5802 5805 5807 5806 5802 5800 5802 5802 5802 5802 5801 5799 5798 5797 5797
5825 5826 5826 5827 5827 5827 5827 5828 5828 5828 5829 5829 5829 5828 5827 5827 5827 5827 5827 5828 5827 5826 5825 5826 5827 5824 5825 5831 5832 5834 5835 5832 5831 5831 5831 5831 5830 5829 5828 5827 5826 5825 5824 5823 5823 5822 5819 5815 5813 5813 5817 5823 5823 5817 5810 5809 5810 5809 5806 5803 5801 5801 5802 5801 5805 5810 5808 5800 5794 5790 5787 5788 5792 5796 5798 5802 5803 5799 5797 5799 5799 5799 5799 5797 5796 5795 5794 5793
5820 5821 5821 5822 5822 5822 5823 5823 5823 5824 5824 5824 5824 5824 5823 5822 5822 5822 5822 5822 5822 5822 5820 5821 5822 5819 5821 5825 5826 5827 5828 5827 5827 5827 5827 5827 5826 5825 5823 5821 5821 5819 5818 5818 5818 5816 5813 5810 5808 5809 5816 5822 5819 5812 5807 5806 5805 5802 5800 5799 5798 5797 5797 5799 5801 5802 5801 5793 5788 5787 5784 5783 5785 5789 5793 5796 5797 5796 5795 5796 5795 5795 5794 5793 5792 5792 5791 5790
5815 5816 5816 5817 5817 5817 5818 5818 5818 5819 5819 5819 5818 5818 5818 5817 5817 5816 5816 5817 5818 5817 5816 5815 5816 5816 5817 5819 5820 5820 5821 5822 5822 5823 5823 5823 5822 5819 5817 5816 5815 5813 5813 5814 5812 5809 5808 5805 5804 5808 5816 5817 5811 5806 5803 5802 5801 5798 5796 5795 5795 5793 5793 5797 5797 5797 5796 5785 5780 5784 5781 5779 5781 5783 5787 5789 5789 5791 5793 5793 5791 5791 5789 5787 5788 5789 5788 5786
5810 5810 5811 5811 5812 5812 5813 5813 5813 5813 5814 5814 5813 5813 5812 5812 5811 5811 5811 5811 5812 5812 5811 5810 5809 5811 5814 5813 5812 5813 5814 5816 5818 5819 5818 5817 5816 5813 5812 5811 5808 5808 5809 5809 5805 5804 5803 5799 5801 5809 5812 5809 5803 5801 5800 5799 5797 5795 5793 5791 5790 5790 5789 5792 5792 5792 5791 5781 5776 5778 5775 5773 5777 5778 5781 5784 5784 5785 5788 5789 5787 5786 5784 5783 5784 5785 5785 5783
5805 5805 5805 5806 5806 5807 5807 5808 5808 5808 5808 5808 5808 5807 5806 5806 5806 5805 5804 5805 5807 5807 5805 5805 5805 5805 5807 5807 5806 5806 5807 5810 5814 5813 5811 5811 5810 5809 5806 5804 5803 5803 5803 5801 5800 5800 5796 5793 5800 5806 5803 5799 5797 5798 5797 5794 5792 5791 5790 5788 5786 5787 5785 5785 5787 5787 5785 5778 5773 5774 5768 5766 5771 5774 5776 5780 5781 5780 5781 5782 5782 5780 5780 5781 5781 5781 5780 5780
5798 5799 5799 5800 5801 5801 5801 5802 5802 5802 5802 5802 5803 5802 5801 5801 5800 5799 5798 5797 5800 5803 5801 5801 5800 5798 5800 5801 5801 5801 5801 5805 5807 5806 5806 5805 5805 5803 5800 5799 5798 5796 5795 5796 5797 5795 5789 5790 5798 5798 5794 5794 5794 5793 5791 5789 5788 5787 5787 5785 5782 5784 5783 5778 5779 5780 5779 5774 5770 5769 5763 5759 5764 5768 5771 5776 5778 5776 5774 5775 5777 5777 5777 5778 5777 5776 5775 5775
5792 5793 5793 5794 5795 5795 5795 5795 5796 5796 5796 5796 5796 5796 5796 5796 5795 5794 5792 5789 5790 5795 5798 5796 5794 5792 5794 5795 5796 5797 5797 5798 5799 5799 5799 5798 5798 5797 5795 5794 5791 5790 5791 5793 5793 5788 5783 5787 5792 5790 5789 5790 5788 5786 5785 5784 5783 5783 5783 5781 5779 5781 5779 5773 5772 5772 5770 5770 5768 5766 5758 5753 5758 5762 5767 5773 5774 5772 5771 5771 5773 5774 5774 5773 5773 5772 5770 5769
5786 5787 5787 5788 5788 5788 5789 5789 5790 5790 5790 5790 5790 5790 5790 5789 5789 5788 5786 5783 5781 5786 5791 5790 5788 5787 5789 5790 5791 5792 5791 5791 5793 5793 5791 5791 5791 5791 5790 5788 5786 5787 5789 5788 5787 5781 5779 5784 5786 5784 5784 5783 5781 5780 5780 5779 5780 5779 5777 5777 5777 5776 5773 5771 5770 5766 5762 5763 5764 5764 5756 5749 5752 5757 5762 5766 5767 5766 5767 5767 5771 5773 5770 5768 5768 5767 5766 5764
5779 5780 5781 5781 5781 5782 5782 5782 5783 5783 5783 5784 5783 5783 5783 5783 5783 5781 5781 5777 5773 5777 5781 5780 5782 5784 5785 5785 5786 5786 5785 5786 5787 5786 5785 5784 5784 5783 5783 5782 5782 5783 5783 5782 5779 5774 5776 5782 5781 5778 5778 5777 5775 5774 5776 5777 5775 5771 5771 5773 5773 5770 5769 5768 5766 5762 5758 5757 5757 5758 5755 5747 5746 5752 5756 5758 5757 5757 5760 5763 5767 5769 5767 5764 5764 5763 5762 5760
5773 5773 5773 5774 5774 5775 5775 5776 5776 5776 5777 5777 5777 5777 5776 5776 5776 5775 5776 5771 5767 5770 5772 5770 5774 5780 5782 5781 5780 5781 5779 5780 5780 5779 5779 5778 5777 5777 5776 5776 5777 5777 5777 5775 5771 5770 5774 5777 5775 5773 5772 5770 5769 5771 5774 5771 5766 5765 5767 5768 5767 5765 5765 5763 5761 5759 5756 5754 5752 5750 5749 5747 5745 5746 5747 5748 5748 5749 5752 5757 5761 5763 5763 5761 5759 5759 5759 5758
5765 5766 5766 5767 5768 5769 5769 5769 5769 5769 5770 5770 5770 5769 5769 5770 5769 5770 5771 5764 5760 5763 5764 5764 5767 5771 5774 5775 5775 5775 5773 5773 5773 5772 5772 5771 5770 5771 5770 5771 5771 5770 5770 5768 5765 5767 5769 5769 5769 5768 5766 5765 5766 5768 5767 5763 5761 5762 5763 5761 5760 5760 5760 5758 5757 5754 5752 5750 5747 5744 5746 5748 5746 5744 5742 5739 5738 5742 5746 5749 5753 5756 5758 5758 5756 5754 5753 5754
5758 5759 5759 5759 5761 5763 5763 5763 5761 5761 5763 5763 5763 5762 5762 5763 5763 5765 5764 5757 5753 5756 5758 5760 5761 5760 5763 5766 5768 5769 5767 5766 5765 5765 5765 5764 5764 5764 5764 5764 5764 5763 5763 5761 5761 5763 5763 5763 5764 5761 5761 5762 5762 5761 5758 5757 5757 5757 5757 5755 5754 5754 5753 5753 5751 5749 5748 5745 5740 5741 5746 5748 5743 5739 5738 5734 5733 5737 5740 5743 5745 5746 5748 5752 5754 5751 5748 5747
5752 5752 5752 5752 5755 5756 5757 5757 5755 5755 5757 5756 5755 5756 5756 5756 5757 5757 5754 5749 5748 5750 5753 5755 5754 5752 5753 5756 5758 5760 5760 5759 5758 5758 5757 5757 5757 5757 5757 5757 5756 5756 5756 5755 5755 5758 5758 5757 5756 5755 5756 5757 5756 5754 5753 5752 5751 5750 5750 5749 5748 5747 5746 5746 5744 5744 5742 5738 5738 5740 5746 5748 5738 5729 5729 5730 5731 5732 5733 5736 5738 5737 5739 5742 5746 5749 5746 5743
5746 5746 5746 5747 5748 5750 5751 5751 5749 5749 5750 5749 5749 5749 5748 5748 5750 5748 5745 5744 5745 5744 5747 5748 5745 5745 5746 5746 5748 5750 5751 5752 5752 5751 5751 5750 5749 5748 5749 5749 5748 5748 5749 5749 5750 5752 5752 5750 5750 5751 5750 5749 5748 5748 5748 5747 5745 5745 5744 5744 5742 5740 5739 5737 5735 5736 5734 5733 5737 5737 5741 5744 5732 5721 5724 5726 5727 5727 5728 5729 5728 5727 5730 5730 5733 5739 5742 5741
5740 5740 5740 5741 5742 5744 5745 5745 5744 5743 5743 5743 5742 5743 5743 5740 5739 5740 5740 5741 5739 5737 5741 5741 5739 5740 5739 5739 5740 5740 5741 5743 5744 5744 5744 5744 5743 5742 5742 5741 5741 5741 5742 5744 5744 5745 5745 5744 5744 5744 5744 5744 5743 5742 5742 5741 5741 5740 5739 5738 5735 5733 5732 5728 5726 5728 5728 5731 5733 5731 5733 5730 5721 5719 5724 5724 5725 5727 5726 5724 5721 5721 5721 5720 5720 5722 5727 5731
5733 5734 5734 5735 5736 5738 5738 5739 5738 5738 5738 5738 5736 5736 5735 5731 5730 5735 5735 5735 5732 5731 5735 5735 5733 5733 5732 5733 5733 5732 5733 5734 5735 5736 5737 5737 5737 5737 5737 5735 5735 5734 5734 5737 5736 5736 5738 5739 5739 5737 5738 5740 5736 5735 5735 5735 5735 5733 5732 5731 5727 5727 5723 5718 5720 5722 5722 5726 5727 5725 5722 5714 5711 5718 5722 5723 5725 5725 5722 5721 5719 5718 5717 5715 5713 5710 5710 5713
5727 5727 5728 5729 5730 5731 5732 5732 5732 5733 5731 5730 5729 5727 5725 5723 5726 5730 5729 5729 5728 5727 5728 5728 5727 5727 5726 5727 5727 5726 5726 5725 5726 5727 5727 5729 5730 5731 5732 5731 5730 5728 5727 5727 5728 5729 5729 5732 5735 5731 5730 5732 5730 5728 5728 5727 5727 5725 5725 5723 5718 5720 5716 5711 5715 5715 5714 5716 5716 5714 5710 5705 5708 5716 5717 5718 5720 5719 5716 5715 5715 5714 5713 5711 5708 5706 5704 5702
5719 5720 5721 5723 5724 5724 5725 5724 5724 5725 5722 5721 5719 5716 5715 5719 5723 5724 5723 5723 5722 5721 5722 5721 5721 5720 5720 5721 5721 5720 5719 5716 5717 5718 5718 5719 5720 5723 5725 5724 5724 5723 5720 5719 5721 5722 5719 5723 5730 5724 5720 5724 5723 5722 5721 5718 5717 5717 5717 5713 5710 5715 5713 5706 5705 5705 5704 5702 5701 5702 5698 5698 5706 5709 5712 5714 5713 5712 5710 5709 5709 5707 5705 5703 5701 5700 5700 5698
5712 5713 5714 5716 5717 5716 5716 5716 5716 5715 5712 5711 5707 5705 5710 5715 5716 5716 5716 5716 5715 5715 5715 5714 5714 5714 5712 5714 5714 5713 5711 5708 5708 5708 5709 5711 5711 5714 5716 5715 5716 5715 5713 5712 5712 5712 5709 5713 5723 5717 5711 5714 5714 5713 5714 5710 5708 5707 5707 5706 5707 5709 5706 5698 5693 5695 5696 5687 5687 5693 5689 5690 5697 5698 5703 5708 5707 5706 5705 5703 5703 5699 5697 5696 5694 5692 5692 5692
5703 5704 5706 5709 5709 5706 5706 5707 5706 5705 5703 5700 5697 5698 5705 5707 5708 5708 5708 5708 5708 5708 5707 5706 5707 5707 5705 5705 5707 5707 5704 5701 5701 5699 5701 5702 5701 5706 5708 5707 5708 5707 5707 5705 5702 5703 5700 5701 5712 5712 5704 5704 5705 5704 5704 5703 5700 5698 5699 5702 5702 5697 5694 5691 5683 5683 5684 5674 5674 5684 5682 5683 5687 5684 5689 5698 5700 5700 5699 5696 5695 5692 5691 5689 5688 5688 5685 5683
5694 5694 5697 5702 5700 5697 5698 5697 5696 5696 5694 5690 5688 5693 5697 5699 5701 5702 5702 5701 5700 5699 5698 5697 5698 5699 5698 5698 5700 5700 5696 5695 5694 5692 5692 5693 5693 5698 5700 5699 5700 5700 5700 5698 5693 5694 5693 5688 5697 5705 5697 5693 5696 5696 5693 5693 5692 5689 5691 5694 5691 5686 5684 5683 5675 5671 5671 5664 5662 5668 5671 5673 5677 5678 5680 5685 5689 5691 5689 5687 5685 5684 5684 5682 5681 5682 5679 5675
5684 5684 5689 5693 5690 5687 5688 5686 5685 5686 5683 5680 5682 5687 5691 5693 5696 5696 5695 5694 5692 5690 5688 5689 5690 5689 5690 5692 5692 5690 5689 5687 5686 5684 5685 5685 5685 5689 5691 5690 5692 5692 5692 5690 5685 5686 5686 5677 5680 5693 5692 5683 5684 5686 5684 5684 5684 5681 5680 5680 5679 5678 5675 5672 5668 5664 5662 5656 5652 5654 5653 5657 5669 5678 5678 5675 5675 5677 5677 5678 5677 5676 5677 5676 5673 5671 5670 5667
5674 5674 5680 5684 5679 5677 5678 5675 5674 5674 5671 5672 5677 5680 5682 5684 5686 5687 5686 5684 5683 5681 5680 5681 5681 5679 5681 5684 5683 5682 5680 5678 5678 5677 5676 5676 5677 5679 5682 5682 5683 5684 5682 5681 5679 5677 5676 5669 5666 5678 5682 5674 5674 5679 5678 5678 5676 5672 5670 5669 5669 5669 5666 5662 5657 5657 5657 5649 5644 5642 5636 5641 5660 5673 5676 5673 5666 5663 5665 5666 5667 5670 5671 5668 5665 5663 5662 5660
5663 5665 5672 5674 5668 5667 5668 5663 5662 5664 5662 5664 5670 5671 5672 5674 5676 5679 5678 5674 5672 5672 5671 5671 5671 5670 5672 5673 5674 5674 5671 5667 5669 5668 5666 5668 5669 5669 5674 5676 5675 5674 5672 5671 5671 5669 5666 5661 5657 5661 5665 5665 5669 5673 5669 5666 5666 5662 5659 5659 5660 5660 5658 5653 5645 5647 5650 5641 5636 5633 5621 5625 5647 5662 5669 5672 5665 5659 5657 5654 5655 5660 5660 5658 5658 5657 5654 5651
5654 5656 5661 5662 5657 5658 5657 5651 5652 5655 5652 5656 5662 5663 5663 5664 5667 5669 5668 5664 5661 5661 5661 5660 5662 5663 5662 5663 5664 5664 5660 5657 5658 5658 5657 5659 5659 5659 5664 5666 5664 5663 5661 5659 5660 5660 5658 5654 5649 5649 5652 5655 5661 5664 5660 5654 5654 5652 5647 5648 5651 5651 5650 5645 5637 5639 5642 5632 5629 5626 5610 5608 5629 5648 5657 5661 5661 5658 5654 5649 5647 5648 5648 5648 5647 5646 5644 5640
5646 5648 5650 5650 5648 5647 5644 5641 5644 5645 5644 5649 5655 5653 5652 5654 5656 5658 5658 5654 5651 5650 5650 5650 5653 5653 5652 5653 5653 5652 5650 5647 5646 5649 5650 5649 5650 5652 5655 5654 5652 5653 5652 5649 5649 5649 5648 5645 5640 5638 5640 5642 5647 5651 5650 5646 5644 5639 5637 5642 5643 5640 5641 5638 5631 5631 5627 5621 5622 5616 5600 5598 5614 5631 5641 5644 5647 5649 5648 5647 5645 5642 5641 5639 5634 5632 5630 5627
5638 5640 5642 5640 5639 5636 5632 5632 5637 5636 5636 5641 5642 5641 5642 5642 5644 5649 5649 5644 5641 5641 5640 5640 5642 5641 5642 5643 5641 5641 5642 5637 5634 5639 5642 5640 5641 5646 5646 5644 5642 5642 5642 5641 5640 5638 5635 5633 5631 5628 5627 5628 5633 5638 5639 5640 5637 5631 5630 5636 5633 5630 5632 5628 5625 5622 5612 5609 5615 5604 5590 5596 5607 5615 5623 5628 5630 5633 5637 5640 5640 5637 5634 5631 5625 5620 5614 5608
5629 5631 5633 5631 5629 5626 5624 5627 5629 5626 5626 5629 5629 5631 5633 5632 5635 5640 5639 5633 5632 5632 5630 5630 5631 5631 5631 5631 5629 5630 5632 5628 5624 5627 5631 5632 5633 5636 5636 5635 5634 5633 5632 5631 5629 5627 5623 5622 5622 5618 5614 5615 5619 5625 5630 5631 5627 5621 5621 5624 5622 5622 5622 5619 5616 5610 5599 5600 5605 5593 5583 5592 5602 5604 5608 5613 5617 5619 5623 5628 5630 5630 5627 5623 5617 5606 5595 5592
5620 5621 5624 5622 5619 5617 5617 5621 5620 5615 5617 5620 5617 5619 5623 5623 5626 5630 5627 5623 5623 5623 5621 5620 5621 5621 5620 5620 5619 5618 5621 5621 5617 5615 5618 5621 5622 5623 5625 5627 5625 5624 5623 5622 5620 5617 5612 5610 5612 5609 5604 5605 5608 5614 5621 5620 5612 5608 5609 5611 5612 5612 5612 5610 5603 5595 5593 5593 5586 5583 5584 5584 5588 5594 5595 5599 5603 5604 5607 5612 5614 5616 5616 5612 5602 5588 5582 5585
5610 5612 5614 5612 5609 5608 5610 5613 5611 5607 5610 5611 5606 5608 5613 5615 5616 5617 5616 5615 5615 5614 5611 5608 5611 5611 5609 5610 5610 5607 5609 5611 5608 5606 5607 5608 5609 5612 5614 5615 5614 5614 5615 5614 5612 5609 5601 5597 5602 5601 5595 5597 5600 5601 5608 5608 5600 5598 5598 5599 5602 5602 5601 5599 5589 5585 5592 5582 5565 5574 5586 5575 5574 5584 5584 5583 5587 5587 5589 5592 5592 5594 5595 5593 5587 5580 5579 5581
5600 5602 5603 5600 5599 5601 5602 5603 5602 5599 5600 5601 5597 5598 5603 5606 5605 5605 5605 5606 5606 5605 5602 5598 5601 5602 5599 5600 5599 5596 5597 5599 5598 5598 5598 5596 5597 5599 5603 5605 5602 5602 5605 5604 5601 5600 5591 5585 5592 5593 5586 5588 5591 5590 5593 5594 5589 5588 5588 5588 5591 5592 5590 5587 5579 5580 5583 5569 5556 5568 5575 5565 5566 5574 5572 5571 5572 5571 5573 5575 5575 5575 5575 5575 5574 5573 5573 5570
5591 5592 5592 5589 5590 5594 5593 5592 5593 5591 5591 5591 5588 5589 5594 5596 5596 5595 5595 5594 5594 5595 5594 5590 5589 5591 5591 5591 5589 5586 5587 5588 5587 5588 5589 5587 5586 5586 5590 5593 5593 5592 5593 5592 5591 5589 5581 5575 5581 5582 5576 5576 5579 5580 5582 5581 5578 5577 5577 5578 5579 5578 5577 5575 5570 5571 5571 5561 5558 5562 5559 5555 5559 5560 5557 5559 5560 5559 5561 5562 5562 5561 5560 5561 5562 5561 5559 5557
5581 5581 5582 5580 5581 5585 5584 5581 5582 5582 5581 5582 5579 5580 5585 5585 5585 5586 5586 5584 5583 5585 5586 5581 5578 5579 5581 5581 5579 5577 5577 5579 5578 5578 5578 5578 5577 5576 5576 5579 5582 5583 5582 5581 5581 5580 5574 5567 5569 5571 5564 5561 5567 5571 5570 5568 5566 5564 5564 5567 5569 5567 5566 5563 5560 5562 5560 5554 5552 5552 5547 5545 5546 5544 5544 5548 5549 5549 5550 5550 5550 5549 5548 5549 5549 5548 5546 5544
5571 5571 5572 5572 5572 5575 5574 5572 5573 5571 5572 5575 5572 5571 5574 5574 5574 5575 5576 5576 5574 5574 5575 5573 5569 5570 5570 5570 5570 5568 5568 5569 5568 5567 5568 5567 5568 5568 5567 5568 5570 5571 5571 5572 5570 5569 5566 5560 5560 5562 5552 5548 5557 5559 5555 5555 5553 5547 5550 5556 5559 5558 5554 5551 5552 5553 5549 5543 5540 5539 5535 5530 5530 5533 5536 5538 5539 5539 5539 5539 5540 5538 5538 5538 5537 5536 5534 5532
5562 5561 5562 5562 5562 5566 5566 5563 5564 5562 5562 5567 5564 5560 5563 5565 5564 5565 5566 5565 5563 5563 5565 5564 5562 5560 5559 5559 5559 5558 5560 5560 5557 5557 5559 5558 5558 5560 5560 5560 5562 5561 5562 5564 5561 5559 5559 5553 5552 5553 5541 5538 5549 5550 5545 5544 5535 5532 5544 5550 5547 5545 5543 5541 5542 5541 5537 5533 5529 5525 5521 5518 5519 5523 5527 5528 5528 5528 5527 5527 5527 5526 5526 5527 5526 5525 5524 5522